Location: El Chorro
(10.0985°N, 67.3542°W)
Time: 18:35:43
(UTC+00:00)

Cosmos 1400 Rocket - Pass Details

Date: 15 November 2025
Orbit: 477 x 514 km, 81.1° (Epoch: 06 December)

Event Time Altitude Azimuth Distance (km) Brightness Sun altitude
Rises 22:39:46 0° 187° (S) 2,621 6.6 -9.2°
Reaches altitude 10° 22:41:53 10° 187° (S) 1,736 5.7 -9.7°
Maximum altitude 22:45:42 83° 273° (W) 522 2.7 -10.6°
Drops below altitude 10° 22:49:31 10° 4° (N) 1,734 5.2 -11.5°
Sets 22:51:39 0° 5° (N) 2,617 6.1 -12.0°
